Location: Bauerbach
(50.4985°N, 10.3912°E)
Time: 14:04:14
(UTC+00:00)

Cosmos 2184 Rocket - Visible Passes

Search period start: 11 April 2026 00:00
Search period end: 21 April 2026 00:00
Orbit: 959 x 1001 km, 82.9° (Epoch: 11 April)

Date Brightness Start Highest point End Pass type
(mag) Time Alt. Az. Time Alt. Az. Time Alt. Az.
11 Apr 4.0 18:46:10 10° S 18:52:30 71° E 18:58:50 10° NNE visible
11 Apr 6.2 20:33:26 10° WSW 20:38:36 25° WNW 20:43:47 10° N visible
12 Apr 7.0 03:53:16 10° NNE 03:57:01 16° NE 04:00:44 10° E visible
12 Apr 4.4 19:12:48 10° SSW 19:19:08 72° W 19:25:31 10° N visible
12 Apr 6.8 21:02:08 10° W 21:05:53 16° NW 21:09:37 10° NNW visible
13 Apr 5.3 19:39:57 10° SW 19:46:00 43° WNW 19:52:02 10° N visible
14 Apr 6.2 20:07:43 10° WSW 20:13:02 27° WNW 20:18:20 10° N visible
15 Apr 7.1 03:27:58 10° NNE 03:31:24 15° NE 03:34:48 10° E visible
15 Apr 4.3 18:47:16 10° SSW 18:53:38 77° W 19:00:00 10° N visible
15 Apr 6.8 20:36:17 10° W 20:40:16 17° WNW 20:44:15 10° NNW visible
16 Apr 5.3 19:14:21 10° SW 19:20:27 47° WNW 19:26:33 10° N visible
16 Apr 7.3 21:07:03 10° NW 21:07:44 10° NW 21:08:27 10° NW visible
17 Apr 6.2 19:42:02 10° SW 19:47:28 29° WNW 19:52:53 10° N visible
18 Apr 7.3 03:02:41 10° NNE 03:05:46 14° NE 03:08:50 10° E visible
18 Apr 6.9 20:10:27 10° W 20:14:40 18° WNW 20:18:53 10° NNW visible
19 Apr 6.9 03:28:19 10° NNE 03:33:06 22° ENE 03:37:49 10° ESE visible
19 Apr 5.2 18:48:45 10° SSW 18:54:55 50° WNW 19:01:04 10° N visible
19 Apr 7.3 20:40:27 10° WNW 20:42:06 11° NW 20:43:45 10° NW visible
20 Apr 6.2 19:16:21 10° SW 19:21:54 31° WNW 19:27:26 10° N visible
